Terug naar catalogus

STARLINK-5244

ActiefCommunicatieVLEO
NORAD 54199·PAYLOAD·🇺🇸 United States

Gelanceerd Oct 28, 2022 vanaf Vandenberg Space Force Base

Loading…

Volgende Passages (komende 24 uur)

TLE

VersSource: CelesTrak SupGP

Epoch: Sep 15, 2026, 02:06 UTC

1 54199C 22141AU  26258.08798611 -.00045028  00000+0 -12885-2 0  2585
2 54199  53.1582 213.2051 0001278  96.3846 268.4584 15.35415201    17

Volg STARLINK-5244 in realtime met AllMySat

Download on the App Store